Terminal Aerodrome Forecast
Issued by NWS Knoxville/Tri Cities, TN

Home | Current Version | Previous Version | Text Only | Print | Product List | Glossary On
Versions: 1 2 3 4 5 6 7 8 9 10 11 12 13 14 15 16 17 18 19 20 21 22 23 24 25
000
FTUS44 KMRX 041120
TAFTYS
TAF
KTYS 041120Z 0412/0512 03003KT P6SM FEW250
     FM041500 05005KT P6SM FEW045
     FM050100 03002KT P6SM SCT060
     FM050800 03002KT P6SM SKC=

USA.gov is the U.S. government's official web portal to all federal, state and local government web resources and services.